Vorticity
nan nan nan nan nan nan nan nan nan nan nan nan nan nan nan nan nan nan nan nan nan nan nan nan nan nan nan nan nan nan nan nan nan nan nan nan nan nan nan nan nan nan nan
nan 10 9 9 10 8 9 8 8 8 8 8 9 9 10 9 9 8 7 9 7 6 8 9 10 11 9 7 6 8 12 10 7 9 7 8 13 10 9 8 9 11 nan
nan 9 9 11 10 10 9 9 9 9 8 8 8 8 9 8 9 9 8 9 9 10 9 8 9 8 9 10 10 10 9 10 14 9 7 7 10 12 12 12 8 11 nan
nan 9 8 10 10 11 9 10 10 9 8 9 9 7 7 9 9 8 8 9 9 9 8 9 9 12 16 15 11 9 8 8 10 8 9 12 8 9 11 12 13 9 nan
nan 10 9 8 8 6 10 12 10 10 10 9 9 10 9 8 11 13 8 9 9 8 9 12 11 12 16 18 16 16 14 9 7 9 10 9 11 11 11 11 11 10 nan
nan 11 11 10 9 10 11 10 11 10 8 10 11 10 8 9 14 12 11 10 9 9 9 11 15 13 4 9 11 11 15 18 12 9 11 12 11 11 9 10 12 15 nan
nan 12 14 13 11 12 11 9 10 10 10 11 11 11 10 10 15 13 10 6 9 9 12 13 9 7 9 6 5 4 5 11 12 12 13 16 12 10 11 12 12 12 nan
nan 9 11 12 11 10 11 13 11 11 11 11 11 10 9 12 17 12 8 8 11 13 15 14 12 7 10 9 7 6 5 4 10 16 18 16 12 10 12 10 10 12 nan
nan 10 10 11 10 10 11 12 11 12 13 11 11 10 9 11 16 11 7 9 13 15 13 13 15 8 6 14 16 9 8 8 8 10 12 10 8 11 14 11 9 11 nan
nan 9 11 12 13 12 12 12 13 13 11 11 12 12 12 15 12 10 2 9 11 9 10 3 10 16 10 16 16 10 8 8 9 8 6 5 6 6 10 15 12 8 nan
nan 10 12 14 15 15 16 17 13 13 13 14 17 17 17 19 13 9 9 12 10 10 8 8 7 8 7 10 16 16 11 9 8 7 8 9 9 10 10 7 8 10 nan
nan 11 13 16 17 15 21 23 15 14 17 15 14 13 18 19 15 14 13 14 12 12 9 10 12 8 9 9 12 13 8 6 10 12 10 10 10 10 9 8 9 10 nan
nan 11 13 15 16 17 15 22 26 18 17 15 10 9 8 12 16 17 16 14 13 12 13 10 10 11 10 8 13 12 10 10 10 11 10 10 10 12 13 11 9 10 nan
nan 11 13 12 12 17 20 14 18 23 19 15 11 11 13 12 13 16 11 9 12 10 14 11 7 6 10 10 7 9 13 15 14 11 10 10 8 8 9 8 9 11 nan
nan 8 10 10 11 11 12 17 20 21 23 18 17 19 14 14 17 19 26 16 7 11 7 8 11 9 8 11 12 12 12 11 10 10 9 8 8 10 9 10 11 10 nan
nan 8 8 9 11 10 7 4 9 16 17 20 22 17 12 14 12 12 14 14 15 13 10 11 10 11 10 13 13 11 11 10 10 10 9 9 8 11 8 10 9 9 nan
nan 9 7 10 10 10 12 10 -1 -4 -0 4 10 14 16 4 1 7 6 7 5 9 10 12 13 12 11 10 8 9 8 8 10 10 11 9 8 9 8 7 9 10 nan
nan 9 12 9 10 13 12 10 10 9 3 -1 3 7 8 12 10 6 3 5 12 13 13 10 8 9 10 10 9 10 10 9 7 7 9 10 10 7 10 9 9 9 nan
nan 10 11 10 9 9 9 12 12 12 11 10 7 7 9 9 12 14 11 8 9 10 9 11 11 10 10 10 9 8 8 9 9 12 12 11 10 10 10 9 14 12 nan
nan 13 15 11 12 13 10 9 9 9 8 9 11 9 8 12 12 11 14 13 10 9 10 10 11 10 10 10 10 10 11 11 12 11 10 11 11 9 10 11 10 10 nan
nan 9 8 12 12 10 10 11 11 10 10 11 12 12 6 10 11 10 10 11 11 11 11 10 10 10 9 9 11 12 11 11 11 11 11 10 10 12 11 11 12 12 nan
nan 10 9 11 11 12 10 11 9 11 12 12 10 10 14 14 10 10 10 10 11 10 9 9 9 10 11 11 11 11 12 11 10 11 11 11 10 11 12 12 12 10 nan
nan 10 10 10 9 10 9 9 12 12 9 10 11 12 14 10 11 11 10 10 9 9 10 10 11 11 11 10 9 9 11 11 9 12 11 13 11 11 13 10 9 11 nan
nan 10 9 9 11 6 11 9 9 10 10 10 9 10 12 11 12 10 9 9 9 8 10 9 11 13 12 11 12 12 10 11 16 11 9 13 18 11 7 11 12 11 nan
nan 10 10 11 11 11 11 10 10 10 9 9 10 10 10 11 11 9 9 9 9 10 11 11 12 11 8 9 11 14 9 10 13 15 16 10 12 12 11 12 13 11 nan
nan nan nan nan nan nan nan nan nan nan nan nan nan nan nan nan nan nan nan nan nan nan nan nan nan nan nan nan nan nan nan nan nan nan nan nan nan nan nan nan nan nan nan
CAPE
2037 1996 2052 2093 2157 2375 2098 2040 2209 2201 2144 2363 2170 2154 1901 1845 1926 2110 1679 1607 1527 1967 1984 1879 2055 2231 1758 902 1045 1007 1391 2358 1682 1043 1327 1349 1842 1826 1394 1552 1187 991 88
1827 2129 2071 2070 2039 1902 2106 1982 2046 2238 2192 2226 2316 2383 1868 1749 1869 1936 1480 1255 1598 1724 1676 1974 1849 1775 2203 2043 1556 1836 1737 2292 1568 1441 2010 1682 2263 1728 1706 1594 990 469 559
1747 1873 1974 1826 1982 1989 2016 2157 2065 2191 2266 1896 1926 2268 2334 1700 2057 1881 1678 1596 1707 1684 1692 1691 1814 1745 2574 2689 2354 2886 2274 1903 2278 1777 1291 731 1245 1846 1266 1305 1349 1151 489
1471 1786 1740 1332 1387 1679 2042 2160 2238 2317 2331 2118 1921 1925 2083 2065 1819 1713 1572 1698 1660 1413 1747 1987 1640 1696 1896 1957 1869 1820 2122 2519 1929 1253 912 904 1130 1053 1309 1559 1944 1957 761
1615 1571 1671 2072 1921 1897 1931 2026 2194 2223 2122 2222 2431 1959 1920 1805 1534 1731 1388 1552 1668 1701 1677 1819 1710 1234 300 607 1292 1539 1878 1889 770 748 1284 950 1072 1509 1214 806 715 862 512
1889 1760 1809 1874 1937 2014 1933 1905 2023 1966 1954 2000 1970 2122 2214 1534 775 475 765 1529 1358 1724 1474 1630 1645 239 10 0 0 0 5 983 1093 965 801 698 705 543 147 38 77 162 387
1294 1742 1948 2122 2126 2099 2049 1936 2043 1907 1963 2614 2037 1920 1987 2030 791 384 541 1014 1444 1613 1656 1675 1671 830 419 879 0 0 0 0 0 227 450 331 67 0 0 0 0 0 0
749 713 753 876 990 1336 1968 2166 2271 2130 2486 2628 2163 2068 2077 1952 852 446 157 1339 1615 1511 1593 1830 1616 668 251 538 728 516 104 45 31 3 1 0 0 0 0 0 0 4 2
459 332 226 131 122 211 448 951 1414 2610 2601 2292 1906 2232 2402 2087 21 0 71 1561 1888 1217 980 929 573 94 0 0 405 359 41 2 0 0 0 0 0 0 0 0 0 0 0
165 58 10 11 9 10 18 87 586 1306 2090 1864 2281 2489 1743 2578 1 0 202 1475 997 347 190 4 0 0 0 0 88 173 44 0 0 6 4 0 0 0 0 0 0 0 0
12 12 10 16 18 13 14 16 21 727 1781 1742 1780 1795 2073 1863 4 1 0 1318 392 128 1 0 0 0 0 0 0 0 0 0 0 0 7 1 0 0 0 0 0 0 0
33 14 10 14 10 8 6 15 31 431 1246 479 1 3 10 6 0 1 1 276 17 31 10 0 0 0 0 0 0 0 0 0 0 6 69 91 83 10 4 0 0 0 0
56 9 7 15 10 8 3 2 17 156 6 4 0 0 5 5 2 1 1 0 0 7 11 0 0 0 0 0 0 0 0 0 0 0 0 0 0 0 0 0 0 0 0
29 17 10 10 8 10 3 2 1 2 3 3 2 1 1 5 2 1 0 0 0 1 2 0 0 0 0 0 0 0 4 0 0 0 0 0 0 0 0 0 0 0 0
20 65 7 15 20 10 3 2 2 0 1 3 4 5 4 2 2 1 0 0 0 0 0 0 0 0 0 0 0 0 0 0 0 0 0 0 0 0 0 0 0 0 0
39 134 2 12 14 16 3 1 0 0 0 0 1 0 0 0 1 1 0 1 0 0 0 0 0 0 0 0 0 0 0 0 0 0 0 0 0 0 0 0 0 0 0
65 141 5 7 29 12 7 0 0 0 0 0 0 0 0 0 0 0 0 0 0 0 0 0 0 0 0 0 0 0 0 0 0 0 0 0 0 0 0 0 0 0 0
45 0 105 8 12 11 9 9 7 5 3 0 0 0 0 0 0 0 0 0 0 0 0 0 0 0 0 0 0 0 0 0 0 0 0 0 0 0 1 0 0 0 0
172 140 22 7 2 0 0 4 6 6 13 6 1 0 0 0 0 0 0 0 0 0 0 0 0 0 0 0 0 0 0 0 0 0 0 0 1 0 1 0 0 0 0
3 8 2 0 0 0 0 0 0 0 0 2 0 0 0 0 0 0 0 0 0 0 0 0 0 0 0 0 0 0 0 0 0 0 1 1 3 1 2 0 3 2 6
0 0 0 0 0 0 0 0 0 0 0 0 0 0 0 0 0 0 8 16 6 3 0 0 0 0 0 0 0 0 0 0 0 0 0 1 0 0 0 2 2 4 12
0 0 0 0 0 0 0 0 0 0 0 0 0 0 0 0 0 5 2 0 0 0 0 0 0 0 0 0 0 0 0 0 0 0 0 0 0 0 0 1 7 15 21
1 0 0 0 0 0 0 0 0 0 0 0 0 0 0 0 0 0 0 0 0 0 0 0 0 0 0 0 0 0 0 0 0 0 0 0 1 1 3 8 15 16 17
4 11 17 25 7 0 4 9 10 0 0 0 0 0 0 0 0 0 0 0 0 0 0 0 0 0 0 0 0 0 0 0 0 0 0 0 1 4 9 14 15 17 21
2 0 1 8 21 17 17 12 8 5 2 0 0 0 0 0 0 0 1 3 1 0 0 0 0 0 1 0 0 0 0 0 0 0 0 0 3 2 7 10 13 0 1
0 0 0 0 0 2 3 3 6 4 3 0 0 0 0 0 0 0 0 0 0 0 0 1 1 0 0 0 0 0 0 0 0 0 0 5 5 7 10 7 7 0 4